Terug naar catalogus

STARLINK-11600

ActiefCommunicatieVLEO
NORAD 63114·PAYLOAD·🇺🇸 United States

Gelanceerd Feb 27, 2025 vanaf Cape Canaveral Space Force Station

Loading…

Volgende Passages (komende 24 uur)

TLE

VersSource: CelesTrak SupGP

Epoch: Sep 15, 2026, 03:36 UTC

1 63114C 25039L   26258.15048611  .00041918  00000+0  32555-3 0  2586
2 63114  43.0005 174.6747 0001461 271.4126 121.3490 15.70819701    10

Volg STARLINK-11600 in realtime met AllMySat

Download on the App Store